{"data":{"norad_id":65212,"intl_designator":"2025-176Q","name":"STARLINK-34897","alt_names":[],"object_type":"PAYLOAD","status":"ACTIVE","operator":null,"country":"US","launch_date":"2025-08-14","launch_site_code":"AFETR","launch_vehicle":null,"mission":null,"orbit_class":"UNKNOWN","rcs_meters":null,"size_class":null,"mass_kg":null,"dimensions":null,"purposes":["comms"],"wikipedia_slug":null,"has_3d_model":false,"image_url":null,"decayed_at":null,"tle_current":{"epoch":"2026-09-20T13:13:31.127808Z","epoch_age_seconds":116012,"freshness":"FRESH","line1":"1 65212U 25176Q   26263.55105472  .00011863  00000+0  36169-3 0  9991","line2":"2 65212  53.1605 323.4324 0001922 146.0589 214.0537 15.34397786 63011","mean_motion":15.34397786,"eccentricity":0.0001922,"inclination_deg":53.1605,"raan_deg":323.4324,"arg_perigee_deg":146.0589,"mean_anomaly_deg":214.0537,"bstar":0.00036169,"rev_number":6301,"period_min":93.847893495331,"perigee_km":461.39500993066,"apogee_km":464.02463144853,"semimajor_km":6840.8468206896,"source":"CELESTRAK","updated_at":"2026-09-21T09:00:35.536099Z"}}}